TimeEST,TemperatureF,Dew PointF,Humidity,Sea Level PressureIn,VisibilityMPH,Wind Direction,Wind SpeedMPH,Gust SpeedMPH,PrecipitationIn,Events,Conditions,WindDirDegrees,DateUTC
12:15 AM,28.9,10.2,46,29.90,10.0,WNW,23.0,34.5,N/A,,Clear,290,2013-02-20 05:15:00
12:35 AM,28.4,10.2,47,29.90,10.0,West,13.8,41.4,N/A,,Clear,280,2013-02-20 05:35:00
12:55 AM,28.2,9.5,45,29.90,10.0,WNW,27.6,42.6,N/A,,Clear,290,2013-02-20 05:55:00
1:15 AM,27.9,10.4,48,29.90,10.0,WNW,27.6,41.4,N/A,,Clear,300,2013-02-20 06:15:00
1:35 AM,27.5,9.9,48,29.91,10.0,WNW,23.0,41.4,N/A,,Clear,290,2013-02-20 06:35:00
2:15 AM,27.0,9.7,48,29.89,10.0,West,23.0,41.4,N/A,,Clear,280,2013-02-20 07:15:00
2:35 AM,26.6,9.7,49,29.88,10.0,WNW,27.6,44.9,N/A,,Clear,290,2013-02-20 07:35:00
3:15 AM,26.2,8.6,47,29.87,10.0,WNW,29.9,46.0,N/A,,Clear,300,2013-02-20 08:15:00
3:35 AM,26.1,7.7,46,29.86,10.0,WNW,39.1,55.2,N/A,,Clear,290,2013-02-20 08:35:00
3:55 AM,25.7,8.6,48,29.86,10.0,WNW,36.8,52.9,N/A,,Clear,290,2013-02-20 08:55:00
4:15 AM,25.3,7.5,47,29.85,10.0,WNW,34.5,51.8,N/A,,Clear,300,2013-02-20 09:15:00
4:35 AM,25.2,7.0,46,29.84,10.0,WNW,40.3,63.3,N/A,,Clear,290,2013-02-20 09:35:00
4:55 AM,25.2,6.3,45,29.84,10.0,WNW,40.3,61.0,N/A,,Clear,290,2013-02-20 09:55:00
5:15 AM,25.2,6.3,45,29.85,10.0,WNW,44.9,58.7,N/A,,Clear,290,2013-02-20 10:15:00
5:35 AM,24.8,5.7,44,29.86,10.0,WNW,35.7,57.5,N/A,,Clear,290,2013-02-20 10:35:00
5:55 AM,24.6,5.5,44,29.85,10.0,WNW,38.0,63.3,N/A,,Clear,290,2013-02-20 10:55:00
6:15 AM,24.8,4.3,42,29.84,10.0,WNW,38.0,65.6,N/A,,Clear,290,2013-02-20 11:15:00
6:35 AM,24.8,4.3,42,29.84,10.0,WNW,40.3,65.6,N/A,,Clear,290,2013-02-20 11:35:00
7:15 AM,25.2,1.4,36,29.83,10.0,WNW,42.6,57.5,N/A,,Clear,300,2013-02-20 12:15:00
7:35 AM,25.7,-0.0,33,29.85,10.0,WNW,40.3,57.5,N/A,,Clear,290,2013-02-20 12:35:00
7:55 AM,26.1,-0.6,32,29.86,10.0,WNW,39.1,63.3,N/A,,Clear,290,2013-02-20 12:55:00
8:15 AM,26.6,-2.7,28,29.86,10.0,WNW,38.0,61.0,N/A,,Clear,290,2013-02-20 13:15:00
8:55 AM,27.5,-3.3,26,29.86,10.0,WNW,36.8,57.5,N/A,,Clear,300,2013-02-20 13:55:00
9:15 AM,28.2,-4.4,24,29.88,10.0,WNW,34.5,54.1,N/A,,Clear,290,2013-02-20 14:15:00
9:35 AM,28.9,-7.8,20,29.87,10.0,WNW,34.5,56.4,N/A,,Clear,300,2013-02-20 14:35:00
9:55 AM,29.3,-7.4,20,29.88,10.0,WNW,35.7,62.1,N/A,,Clear,300,2013-02-20 14:55:00
10:15 AM,30.2,-10.8,17,29.88,10.0,WNW,40.3,56.4,N/A,,Clear,290,2013-02-20 15:15:00
10:35 AM,31.6,-10.1,16,29.90,10.0,WNW,26.5,56.4,N/A,,Clear,300,2013-02-20 15:35:00
10:55 AM,32.2,-10.8,15,29.93,10.0,WNW,26.5,46.0,N/A,,Clear,300,2013-02-20 15:55:00
11:15 AM,33.3,-10.8,15,29.95,10.0,NW,18.4,31.1,N/A,,Clear,320,2013-02-20 16:15:00
11:35 AM,33.4,-10.1,15,29.97,10.0,NW,16.1,36.8,N/A,,Clear,310,2013-02-20 16:35:00
12:15 PM,34.9,-10.7,14,29.98,10.0,WNW,19.6,26.5,N/A,,Clear,300,2013-02-20 17:15:00
12:35 PM,35.4,-11.6,13,29.99,10.0,West,19.6,44.9,N/A,,Clear,280,2013-02-20 17:35:00
1:15 PM,36.3,-12.1,12,29.98,10.0,WNW,16.1,27.6,N/A,,Clear,290,2013-02-20 18:15:00
1:35 PM,36.5,-12.3,12,29.98,10.0,WNW,18.4,-,N/A,,Clear,290,2013-02-20 18:35:00
1:55 PM,36.5,-11.7,12,29.97,10.0,West,17.3,32.2,N/A,,Clear,270,2013-02-20 18:55:00
2:15 PM,37.4,-10.5,13,29.97,10.0,NW,3.5,16.1,N/A,,Clear,310,2013-02-20 19:15:00
2:35 PM,37.2,-10.1,13,29.98,10.0,West,6.9,20.7,N/A,,Clear,280,2013-02-20 19:35:00
3:15 PM,37.8,-9.0,13,29.98,10.0,Calm,Calm,-,N/A,,Clear,0,2013-02-20 20:15:00
3:55 PM,38.1,-7.2,14,29.98,10.0,WNW,6.9,-,N/A,,Clear,290,2013-02-20 20:55:00
4:15 PM,37.4,-7.8,14,29.99,10.0,West,9.2,16.1,N/A,,Clear,260,2013-02-20 21:15:00
4:35 PM,36.9,-4.9,17,29.99,10.0,WSW,9.2,17.3,N/A,,Clear,240,2013-02-20 21:35:00
4:55 PM,36.5,-4.5,17,30.00,10.0,West,11.5,-,N/A,,Clear,270,2013-02-20 21:55:00
5:15 PM,35.8,-4.5,18,30.00,10.0,West,15.0,21.9,N/A,,Clear,270,2013-02-20 22:15:00
5:35 PM,33.8,-3.3,20,30.02,10.0,West,12.7,23.0,N/A,,Clear,270,2013-02-20 22:35:00
6:15 PM,32.4,-1.1,24,30.03,10.0,WNW,13.8,21.9,N/A,,Clear,300,2013-02-20 23:15:00
6:35 PM,32.0,-0.6,25,30.04,10.0,NW,9.2,25.3,N/A,,Clear,310,2013-02-20 23:35:00
6:55 PM,31.8,-0.2,25,30.04,10.0,NW,16.1,25.3,N/A,,Clear,310,2013-02-20 23:55:00
7:15 PM,31.1,0.9,28,30.04,10.0,NW,13.8,25.3,N/A,,Clear,310,2013-02-21 00:15:00
7:35 PM,30.9,1.8,29,30.04,10.0,WNW,17.3,26.5,N/A,,Clear,290,2013-02-21 00:35:00
7:55 PM,30.7,1.8,29,30.04,10.0,West,19.6,27.6,N/A,,Clear,280,2013-02-21 00:55:00
8:15 PM,30.6,1.9,30,30.04,10.0,WNW,17.3,31.1,N/A,,Clear,300,2013-02-21 01:15:00
8:35 PM,30.0,2.3,31,30.02,10.0,WNW,21.9,34.5,N/A,,Clear,300,2013-02-21 01:35:00
8:55 PM,29.7,2.3,31,30.02,10.0,WNW,21.9,33.4,N/A,,Clear,300,2013-02-21 01:55:00
9:15 PM,29.3,2.5,32,30.02,10.0,WNW,25.3,34.5,N/A,,Clear,300,2013-02-21 02:15:00
9:35 PM,29.3,2.7,32,30.04,10.0,WNW,21.9,27.6,N/A,,Clear,300,2013-02-21 02:35:00
9:55 PM,28.9,3.2,33,30.05,10.0,WNW,15.0,25.3,N/A,,Clear,300,2013-02-21 02:55:00
10:15 PM,28.8,3.7,34,30.06,10.0,WNW,12.7,21.9,N/A,,Clear,300,2013-02-21 03:15:00
10:35 PM,28.0,4.6,37,30.05,10.0,NW,8.1,16.1,N/A,,Clear,310,2013-02-21 03:35:00
10:55 PM,27.3,5.7,40,30.04,10.0,WNW,10.4,16.1,N/A,,Clear,300,2013-02-21 03:55:00
11:15 PM,27.0,5.9,41,30.05,10.0,NW,4.6,-,N/A,,Clear,320,2013-02-21 04:15:00
11:35 PM,26.8,5.9,41,30.05,10.0,WNW,10.4,-,N/A,,Clear,290,2013-02-21 04:35:00
11:55 PM,27.1,5.9,41,30.04,10.0,West,12.7,18.4,N/A,,Clear,280,2013-02-21 04:55:00